Regional Weather Roundup
Issued by NWS Newport/Morehead, NC

Current Version | Previous Version | Graphics & Text | Print | Product List | Glossary On
Versions: 1 2 3 4 5 6 7 8 9 10 11 12 13 14 15 16 17 18 19 20 21 22 23 24 25 26 27 28 29 30 31 32 33 34 35 36 37 38 39 40 41 42 43 44 45 46 47 48 49 50
000
ASUS42 KMHX 280512
RWRMHX
WEATHER ROUNDUP FOR EASTERN NORTH CAROLINA
NATIONAL WEATHER SERVICE NEWPORT/MOREHEAD CITY NC
100 AM EDT TUE APR 28 2015

NOTE: "FAIR" INDICATES FEW OR NO CLOUDS BELOW 12,000 FEET
WITH NO SIGNIFICANT WEATHER AND/OR OBSTRUCTIONS TO VISIBILITY

NCZ015>017-031-032-045>047-102-103-280600-
NORTH COAST

CITY           SKY/WX    TMP DP  RH WIND       PRES   REMARKS
EDENTON        CLEAR     49  41  75 CALM      29.89S
ELIZABETH CITY CLEAR     47  40  76 W7        29.88S
KITTY HAWK     CLEAR     54  43  67 NW3       29.86S
MANTEO         CLEAR     55  38  53 N7        29.88S

$$

NCZ045>047-081-094-103-104-280600-
CENTRAL COAST

CITY           SKY/WX    TMP DP  RH WIND       PRES   REMARKS
FRISCO         CLEAR     51  38  60 N3        29.88R
SWANQUARTER      N/A     48 N/A N/A VRB1      29.85S

$$

NCZ095-097-098-100-101-280600-
SOUTHERN COAST

CITY           SKY/WX    TMP DP  RH WIND       PRES   REMARKS
BEAUFORT       PTCLDY    53  46  77 N5        29.89R
CEDAR ISLAND     N/A     59 N/A N/A N5G14     29.91S
JACKSONVILLE   PTCLDY    55  39  54 N8        29.90R
PINEY ISLAND   MOCLDY   N/A N/A N/A N3        29.88S
WILMINGTON     PTCLDY    56  39  53 N9        29.90S


$$

NCZ011>013-027>030-043-044-078>080-089-090>093-098-280600-
COASTAL PLAIN

CITY           SKY/WX    TMP DP  RH WIND       PRES   REMARKS
AHOSKIE        CLEAR     44  39  82 CALM      29.91S
CLINTON        CLEAR     52  42  68 CALM      29.92F
ELIZABETHTOWN  PTCLDY    53  38  56 CALM      29.91F
GOLDSBORO      CLEAR     55  34  46 CALM      29.90S
GREENVILLE     CLEAR     46  45  93 CALM      29.93S
HAVELOCK       CLEAR     56  42  59 N7        29.90S
KENANSVILLE    CLEAR     53  34  49 CALM      29.92F
KINSTON        CLEAR     49  41  72 NW3       29.92S
NEW BERN       CLEAR     53  40  61 CALM      29.91S
RICHLANDS      PTCLDY    50  37  62 NW3       29.91F
ROCKY MOUNT    CLEAR     46  40  79 CALM      29.92S
WASHINGTON     CLEAR     47  41  77 CALM      29.90F
WHITEVILLE     PTCLDY    56  35  44 N3        29.91S

$$

AMZ130-135-150-152-154-156-158-170-250-252-270-ANZ085-086-088-633-658-670-280600-
MARINE OBSERVATIONS

STATION/POSITION TIME  TEMP    WIND        PRES    WAVE   SWELL
                       AIR SEA DIR/SP/G            HT/PER HT/PER
                 (UTC) (F)     (DEG/KT/KT) (MB)    (FT/S) (FT/S)
CHESAPEAKE LIGHT 0500   55     320/ 21/ 24 1011.4
64 E VA BEACH    0450   55 56  310/ 17/ 21 1009.6    3/ 3   2/ 7
DUCK             0406   54 54  290/  7/  9 1010.5
2 E DUCK         0411      55                N/A     2/ 7
OREGON INLET     0406   54 58  300/  3/  4 1011.5
13E OREGON INLT  NOT AVBL
HATTERAS CG      0400   58 64  360/ 12/ 14 1011.2
DIAMOND BUOY     0450   60 74  360/ 16/ 21 1011.3    3/ 8   2/ 8
CAPE LOOKOUT     0500   58      10/  9/ 15 1011.6
BEAUFORT LAB     0400   58 63   20/  5/  7 1010.9
27 SE WRIGHTSVLE 0400   63 72   10/ 17/ 19   N/A
5 SE WRIGHTSVLE  0408   63 65  360/ 16/ 21 1012.1
225 S CAPE HAT   0450   66 70  350/ 12/ 16 1011.3    5/ 8   3/ 8
41 SE CHARLESTON 0450   67 71  280/  4/  6 1011.1    2/ 5   2/ 5

$$


USA.gov is the U.S. government's official web portal to all federal, state and local government web resources and services.